,,,PA_Meas_PMT16A,,PR_Meas_QMR101_102,,RH_Meas_QMH101,,SR_Meas_QMS101,,TA_Meas_QMH101,,GenWind,,GenWind,
date,time,status,PA,status,PR,status,RH,status,SR,status,TA,status,DirAvg,status,SpdAvg,
2011-08-13, 00:00:04,VALID,998.737,VALID,0,VALID,86.9319,VALID,0,VALID,23.7207,VALID,60,VALID,1.01016,
2011-08-13, 00:01:04,VALID,998.767,VALID,0,VALID,87.4354,VALID,0,VALID,23.6994,VALID,60,VALID,0.655859,
2011-08-13, 00:02:04,VALID,998.741,VALID,0,VALID,87.2981,VALID,0,VALID,23.6427,VALID,60,VALID,0.231641,
2011-08-13, 00:03:04,VALID,998.758,VALID,0,VALID,87.3668,VALID,0,VALID,23.5238,VALID,60,VALID,0.243359,
2011-08-13, 00:04:04,VALID,998.729,VALID,0,VALID,87.7101,VALID,0,VALID,23.4866,VALID,60,VALID,0.237891,
2011-08-13, 00:05:04,VALID,998.709,VALID,0,VALID,88,VALID,0,VALID,23.4067,VALID,60,VALID,0.549219,
2011-08-13, 00:06:04,VALID,998.706,VALID,0,VALID,88.145,VALID,0,VALID,23.3677,VALID,131,VALID,0.522656,
2011-08-13, 00:07:04,VALID,998.686,VALID,0,VALID,88.4502,VALID,0.112286,VALID,23.3677,VALID,131,VALID,0.469531,
2011-08-13, 00:08:04,VALID,998.652,VALID,0,VALID,87.9466,VALID,0,VALID,23.3482,VALID,131,VALID,0.821875,
2011-08-13, 00:09:04,VALID,998.654,VALID,0,VALID,86.7488,VALID,0,VALID,23.3872,VALID,116,VALID,1.03828,
2011-08-13, 00:10:04,VALID,998.652,VALID,0,VALID,86.1079,VALID,0.112286,VALID,23.4848,VALID,116,VALID,1.03867,
2011-08-13, 00:11:04,VALID,998.667,VALID,0,VALID,85.5815,VALID,0,VALID,23.5238,VALID,124,VALID,1.26367,
2011-08-13, 00:12:04,VALID,998.67,VALID,0,VALID,85.1466,VALID,0,VALID,23.5451,VALID,126,VALID,1.12305,
2011-08-13, 00:13:04,VALID,998.657,VALID,0,VALID,83.552,VALID,0.112286,VALID,23.5238,VALID,126,VALID,1.13594,
2011-08-13, 00:14:04,VALID,998.66,VALID,0,VALID,82.7356,VALID,0,VALID,23.5238,VALID,116,VALID,1.41328,
2011-08-13, 00:15:04,VALID,998.662,VALID,0,VALID,84.6735,VALID,0,VALID,23.5823,VALID,84,VALID,0.804688,
2011-08-13, 00:16:04,VALID,998.693,VALID,0,VALID,85.116,VALID,0,VALID,23.5841,VALID,60,VALID,0.941406,
2011-08-13, 00:17:04,VALID,998.718,VALID,0,VALID,85.7035,VALID,0,VALID,23.5646,VALID,58,VALID,0.981641,
2011-08-13, 00:18:04,VALID,998.75,VALID,0,VALID,85.8332,VALID,0,VALID,23.4848,VALID,58,VALID,0.722656,
2011-08-13, 00:19:04,VALID,998.757,VALID,0,VALID,86.6115,VALID,0,VALID,23.4671,VALID,58,VALID,0.922656,
2011-08-13, 00:20:04,VALID,998.726,VALID,0,VALID,87.054,VALID,0,VALID,23.3872,VALID,40,VALID,0.83125,
2011-08-13, 00:21:04,VALID,998.748,VALID,0,VALID,87.4278,VALID,0,VALID,23.3092,VALID,39,VALID,0.646484,
2011-08-13, 00:22:04,VALID,998.784,VALID,0,VALID,88.1297,VALID,0,VALID,23.311,VALID,353,VALID,0.651953,
2011-08-13, 00:23:04,VALID,998.771,VALID,0,VALID,88.7401,VALID,0,VALID,23.2507,VALID,353,VALID,0.610547,
2011-08-13, 00:24:04,VALID,998.75,VALID,0,VALID,89.2208,VALID,0,VALID,23.2329,VALID,25,VALID,1.04961,
2011-08-13, 00:25:04,VALID,998.775,VALID,0,VALID,89.648,VALID,0,VALID,23.1726,VALID,31,VALID,1.12383,
2011-08-13, 00:26:04,VALID,998.745,VALID,0,VALID,89.9151,VALID,0,VALID,23.1336,VALID,32,VALID,1.06836,
2011-08-13, 00:27:04,VALID,998.784,VALID,0,VALID,90.1363,VALID,0,VALID,23.0946,VALID,35,VALID,1.32969,
2011-08-13, 00:28:05,VALID,998.761,VALID,0,VALID,90.2431,VALID,0.112286,VALID,23.0556,VALID,38,VALID,1.95742,
2011-08-13, 00:29:05,VALID,998.762,VALID,0,VALID,90.2737,VALID,0,VALID,22.9776,VALID,45,VALID,1.7332,
2011-08-13, 00:30:05,VALID,998.791,VALID,0,VALID,90.3805,VALID,0,VALID,22.9598,VALID,53,VALID,1.34453,
2011-08-13, 00:31:05,VALID,998.763,VALID,0,VALID,90.5483,VALID,0,VALID,22.9403,VALID,54,VALID,1.21289,
2011-08-13, 00:32:05,VALID,998.716,VALID,0,VALID,90.678,VALID,0,VALID,22.9208,VALID,54,VALID,1.47148,
2011-08-13, 00:33:05,VALID,998.667,VALID,0,VALID,90.7849,VALID,0,VALID,22.9013,VALID,54,VALID,1.79609,
2011-08-13, 00:34:05,VALID,998.672,VALID,0,VALID,90.8764,VALID,0,VALID,22.8818,VALID,53,VALID,1.99766,
2011-08-13, 00:35:05,VALID,998.657,VALID,0,VALID,90.9374,VALID,0,VALID,22.8623,VALID,48,VALID,2.04219,
2011-08-13, 00:36:05,VALID,998.7,VALID,0,VALID,90.9756,VALID,0,VALID,22.8232,VALID,46,VALID,1.39023,
2011-08-13, 00:37:05,VALID,998.706,VALID,0,VALID,91.0137,VALID,0,VALID,22.7825,VALID,62,VALID,0.978516,
2011-08-13, 00:38:05,VALID,998.693,VALID,0,VALID,91.0824,VALID,0,VALID,22.7842,VALID,56,VALID,1.12812,
2011-08-13, 00:39:05,VALID,998.672,VALID,0,VALID,91.1358,VALID,0,VALID,22.7842,VALID,43,VALID,1.69609,
2011-08-13, 00:40:05,VALID,998.718,VALID,0,VALID,91.2121,VALID,0,VALID,22.7647,VALID,38,VALID,1.72617,
2011-08-13, 00:41:05,VALID,998.753,VALID,0,VALID,91.2426,VALID,0,VALID,22.7435,VALID,49,VALID,1.53047,
2011-08-13, 00:42:05,VALID,998.743,VALID,0,VALID,91.3037,VALID,0,VALID,22.7452,VALID,47,VALID,2.10469,
2011-08-13, 00:43:05,VALID,998.743,VALID,0,VALID,91.3876,VALID,0,VALID,22.7647,VALID,47,VALID,2.34766,
2011-08-13, 00:44:05,VALID,998.731,VALID,0,VALID,91.4257,VALID,0,VALID,22.7452,VALID,46,VALID,2.44961,
2011-08-13, 00:45:05,VALID,998.697,VALID,0,VALID,91.441,VALID,0,VALID,22.7045,VALID,40,VALID,2.53398,
2011-08-13, 00:46:05,VALID,998.681,VALID,0,VALID,91.4486,VALID,0,VALID,22.7062,VALID,40,VALID,2.57148,
2011-08-13, 00:47:05,VALID,998.684,VALID,0,VALID,91.502,VALID,0,VALID,22.6867,VALID,37,VALID,2.17461,
2011-08-13, 00:48:05,VALID,998.696,VALID,0,VALID,91.5554,VALID,0,VALID,22.6655,VALID,50,VALID,1.79844,
2011-08-13, 00:49:05,VALID,998.702,VALID,0,VALID,91.6241,VALID,0,VALID,22.6672,VALID,63,VALID,1.38555,
2011-08-13, 00:50:05,VALID,998.687,VALID,0,VALID,91.6394,VALID,0,VALID,22.6672,VALID,61,VALID,1.31953,
2011-08-13, 00:51:05,VALID,998.682,VALID,0,VALID,91.5478,VALID,0,VALID,22.5874,VALID,56,VALID,1.04492,
2011-08-13, 00:52:05,VALID,998.658,VALID,0,VALID,91.4257,VALID,0,VALID,22.5892,VALID,56,VALID,0.702344,
2011-08-13, 00:53:05,VALID,998.638,VALID,0,VALID,91.3113,VALID,0,VALID,22.5696,VALID,56,VALID,0.595312,
2011-08-13, 00:54:05,VALID,998.629,VALID,0,VALID,91.2274,VALID,0,VALID,22.5501,VALID,56,VALID,0.647266,
2011-08-13, 00:55:05,VALID,998.643,VALID,0,VALID,91.1587,VALID,0.112286,VALID,22.5306,VALID,109,VALID,1.06367,
2011-08-13, 00:56:05,VALID,998.621,VALID,0,VALID,91.1587,VALID,0,VALID,22.5111,VALID,109,VALID,1.075,
2011-08-13, 00:57:05,VALID,998.582,VALID,0,VALID,91.1587,VALID,0,VALID,22.5111,VALID,107,VALID,1.27969,
2011-08-13, 00:58:05,VALID,998.583,VALID,0,VALID,91.1587,VALID,0,VALID,22.4509,VALID,96,VALID,1.23555,
2011-08-13, 00:59:05,VALID,998.56,VALID,0,VALID,91.1892,VALID,0,VALID,22.4721,VALID,95,VALID,1.06172,
2011-08-13, 01:00:05,VALID,998.528,VALID,0,VALID,91.2655,VALID,0,VALID,22.4916,VALID,83,VALID,0.901563,
2011-08-13, 01:01:05,VALID,998.52,VALID,0,VALID,91.235,VALID,0,VALID,22.5111,VALID,83,VALID,0.664063,
2011-08-13, 01:02:05,VALID,998.537,VALID,0,VALID,91.1892,VALID,0,VALID,22.5111,VALID,83,VALID,0.241016,
2011-08-13, 01:03:05,VALID,998.548,VALID,0,VALID,91.0824,VALID,0,VALID,22.4721,VALID,110,VALID,0.619531,
2011-08-13, 01:04:05,VALID,998.538,VALID,0,VALID,91.0366,VALID,0,VALID,22.4526,VALID,110,VALID,0.244141,
2011-08-13, 01:05:05,VALID,998.52,VALID,0,VALID,91.0519,VALID,0,VALID,22.4526,VALID,110,VALID,0,
2011-08-13, 01:06:05,VALID,998.527,VALID,0,VALID,91.1129,VALID,0,VALID,22.4721,VALID,110,VALID,0,
2011-08-13, 01:07:05,VALID,998.556,VALID,0,VALID,91.0824,VALID,0,VALID,22.4526,VALID,127,VALID,1.22539,
2011-08-13, 01:08:05,VALID,998.529,VALID,0,VALID,90.9451,VALID,0,VALID,22.4331,VALID,137,VALID,1.53945,
2011-08-13, 01:09:05,VALID,998.513,VALID,0,VALID,90.762,VALID,0,VALID,22.4526,VALID,131,VALID,1.21211,
2011-08-13, 01:10:05,VALID,998.506,VALID,0,VALID,90.4568,VALID,0,VALID,22.4721,VALID,124,VALID,0.970312,
2011-08-13, 01:11:05,VALID,998.478,VALID,0,VALID,90.2431,VALID,0,VALID,22.5306,VALID,137,VALID,1.0375,
2011-08-13, 01:12:05,VALID,998.505,VALID,0,VALID,90.1592,VALID,0,VALID,22.5892,VALID,137,VALID,0.991406,
2011-08-13, 01:13:05,VALID,998.48,VALID,0,VALID,89.9837,VALID,0,VALID,22.6087,VALID,137,VALID,1.61563,
2011-08-13, 01:14:05,VALID,998.475,VALID,0,VALID,89.9303,VALID,0,VALID,22.6867,VALID,139,VALID,1.23086,
2011-08-13, 01:15:05,VALID,998.465,VALID,0,VALID,89.8846,VALID,0,VALID,22.685,VALID,139,VALID,0.584375,
2011-08-13, 01:16:05,VALID,998.476,VALID,0,VALID,89.8311,VALID,0,VALID,22.685,VALID,139,VALID,1.09648,
2011-08-13, 01:17:05,VALID,998.456,VALID,0,VALID,89.793,VALID,0,VALID,22.6867,VALID,139,VALID,0.853516,
2011-08-13, 01:18:05,VALID,998.429,VALID,0,VALID,89.8159,VALID,0,VALID,22.7062,VALID,139,VALID,0.541016,
2011-08-13, 01:19:05,VALID,998.463,VALID,0,VALID,89.6938,VALID,0,VALID,22.6867,VALID,139,VALID,0.643359,
2011-08-13, 01:20:05,VALID,998.459,VALID,0,VALID,89.6709,VALID,0,VALID,22.685,VALID,140,VALID,0.548828,
2011-08-13, 01:21:05,VALID,998.458,VALID,0,VALID,89.7625,VALID,0,VALID,22.7257,VALID,139,VALID,0.869141,
2011-08-13, 01:22:05,VALID,998.425,VALID,0,VALID,89.6404,VALID,0,VALID,22.7062,VALID,127,VALID,1.10977,
2011-08-13, 01:23:05,VALID,998.439,VALID,0,VALID,89.5946,VALID,0,VALID,22.7062,VALID,127,VALID,0.807422,
2011-08-13, 01:24:05,VALID,998.462,VALID,0,VALID,89.4268,VALID,0,VALID,22.6867,VALID,129,VALID,0.713281,
2011-08-13, 01:25:05,VALID,998.481,VALID,0,VALID,89.4878,VALID,0,VALID,22.6672,VALID,140,VALID,1.00039,
2011-08-13, 01:26:05,VALID,998.48,VALID,0,VALID,89.7777,VALID,0,VALID,22.646,VALID,140,VALID,0.65,
2011-08-13, 01:27:05,VALID,998.469,VALID,0,VALID,89.9914,VALID,0,VALID,22.6672,VALID,119,VALID,1.05859,
2011-08-13, 01:28:05,VALID,998.436,VALID,0,VALID,90.1974,VALID,0,VALID,22.646,VALID,100,VALID,0.939062,
2011-08-13, 01:29:05,VALID,998.51,VALID,0,VALID,90.3423,VALID,0,VALID,22.6672,VALID,92,VALID,0.930469,
2011-08-13, 01:30:05,VALID,998.487,VALID,0,VALID,90.3881,VALID,0,VALID,22.6477,VALID,92,VALID,0.896875,
2011-08-13, 01:31:05,VALID,998.529,VALID,0,VALID,90.4263,VALID,0,VALID,22.6299,VALID,81,VALID,1.0043,
2011-08-13, 01:32:05,VALID,998.548,VALID,0,VALID,90.3271,VALID,0,VALID,22.5909,VALID,74,VALID,0.833984,
2011-08-13, 01:33:05,VALID,998.536,VALID,0,VALID,90.1745,VALID,0,VALID,22.5128,VALID,49,VALID,1.20234,
2011-08-13, 01:34:05,VALID,998.527,VALID,0,VALID,90.1897,VALID,0,VALID,22.3958,VALID,33,VALID,1.1918,
2011-08-13, 01:35:05,VALID,998.557,VALID,0,VALID,90.3805,VALID,0,VALID,22.3373,VALID,33,VALID,1.3543,
2011-08-13, 01:36:05,VALID,998.589,VALID,0,VALID,90.5254,VALID,0,VALID,22.2592,VALID,33,VALID,1.25273,
2011-08-13, 01:37:05,VALID,998.599,VALID,0,VALID,90.7238,VALID,0,VALID,22.199,VALID,33,VALID,1.43203,
2011-08-13, 01:38:05,VALID,998.591,VALID,0,VALID,90.8383,VALID,0,VALID,22.1812,VALID,19,VALID,1.46875,
2011-08-13, 01:39:05,VALID,998.563,VALID,0,VALID,90.8917,VALID,0,VALID,22.1227,VALID,19,VALID,1.30859,
2011-08-13, 01:40:05,VALID,998.556,VALID,0,VALID,90.9756,VALID,0,VALID,22.0837,VALID,19,VALID,1.50742,
2011-08-13, 01:41:05,VALID,998.544,VALID,0,VALID,91.1358,VALID,0,VALID,22.0625,VALID,19,VALID,1.46953,
2011-08-13, 01:42:05,VALID,998.549,VALID,0,VALID,91.2426,VALID,0,VALID,22.043,VALID,19,VALID,1.59063,
2011-08-13, 01:43:05,VALID,998.529,VALID,0,VALID,91.2197,VALID,0,VALID,22.0252,VALID,19,VALID,1.20781,
2011-08-13, 01:44:05,VALID,998.546,VALID,0,VALID,91.235,VALID,0,VALID,22.0057,VALID,19,VALID,0.796484,
2011-08-13, 01:45:05,VALID,998.549,VALID,0,VALID,91.3037,VALID,0,VALID,21.965,VALID,19,VALID,0.871094,
2011-08-13, 01:46:05,VALID,998.496,VALID,0,VALID,91.3418,VALID,0,VALID,21.9667,VALID,19,VALID,0.464063,
2011-08-13, 01:47:05,VALID,998.504,VALID,0,VALID,91.4181,VALID,0,VALID,21.9277,VALID,19,VALID,0.622656,
2011-08-13, 01:48:05,VALID,998.497,VALID,0,VALID,91.5097,VALID,0,VALID,21.9472,VALID,19,VALID,1.05938,
2011-08-13, 01:49:05,VALID,998.448,VALID,0,VALID,91.6241,VALID,0,VALID,21.9667,VALID,19,VALID,1.11328,
2011-08-13, 01:50:05,VALID,998.474,VALID,0,VALID,91.6699,VALID,0,VALID,21.926,VALID,19,VALID,0.848828,
2011-08-13, 01:51:05,VALID,998.492,VALID,0,VALID,91.6851,VALID,0,VALID,21.9065,VALID,19,VALID,0.242188,
2011-08-13, 01:52:05,VALID,998.473,VALID,0,VALID,91.7004,VALID,0,VALID,21.887,VALID,19,VALID,0.464453,
2011-08-13, 01:53:05,VALID,998.448,VALID,0,VALID,91.7996,VALID,0,VALID,21.9277,VALID,19,VALID,0.827734,
2011-08-13, 01:54:05,VALID,998.469,VALID,0,VALID,91.8835,VALID,0,VALID,21.9455,VALID,19,VALID,1.00234,
2011-08-13, 01:55:05,VALID,998.415,VALID,0,VALID,91.9217,VALID,0,VALID,21.965,VALID,19,VALID,1.25859,
2011-08-13, 01:56:05,VALID,998.434,VALID,0,VALID,91.9445,VALID,0,VALID,21.9862,VALID,47,VALID,1.22344,
2011-08-13, 01:57:05,VALID,998.41,VALID,0,VALID,91.9445,VALID,0,VALID,21.9455,VALID,47,VALID,1.01875,
2011-08-13, 01:58:05,VALID,998.455,VALID,0,VALID,91.9064,VALID,0,VALID,21.9472,VALID,47,VALID,0.212109,
2011-08-13, 01:59:05,VALID,998.448,VALID,0,VALID,91.8148,VALID,0,VALID,21.9277,VALID,47,VALID,0.38125,
2011-08-13, 02:00:05,VALID,998.425,VALID,0,VALID,91.8454,VALID,0,VALID,21.9472,VALID,188,VALID,0.813672,
2011-08-13, 02:01:05,VALID,998.44,VALID,0,VALID,91.8988,VALID,0,VALID,21.9862,VALID,188,VALID,0.645703,
2011-08-13, 02:02:05,VALID,998.434,VALID,0,VALID,91.9217,VALID,0,VALID,22.0447,VALID,188,VALID,0.287891,
2011-08-13, 02:03:05,VALID,998.402,VALID,0,VALID,91.9217,VALID,0,VALID,22.0642,VALID,188,VALID,0.028125,
2011-08-13, 02:04:05,VALID,998.398,VALID,0,VALID,91.914,VALID,0,VALID,22.0642,VALID,188,VALID,0,
2011-08-13, 02:05:05,VALID,998.404,VALID,0,VALID,91.8911,VALID,0,VALID,22.0854,VALID,188,VALID,0.251172,
2011-08-13, 02:06:05,VALID,998.404,VALID,0,VALID,91.8225,VALID,0,VALID,22.0837,VALID,188,VALID,0.170703,
2011-08-13, 02:07:05,VALID,998.456,VALID,0,VALID,91.7614,VALID,0,VALID,22.0642,VALID,188,VALID,0,
2011-08-13, 02:08:05,VALID,998.409,VALID,0,VALID,91.647,VALID,0,VALID,22.0269,VALID,188,VALID,0.277344,
2011-08-13, 02:09:05,VALID,998.41,VALID,0,VALID,91.6012,VALID,0,VALID,22.0057,VALID,140,VALID,1.04688,
2011-08-13, 02:10:05,VALID,998.372,VALID,0,VALID,91.5707,VALID,0,VALID,22.0447,VALID,140,VALID,0.942187,
2011-08-13, 02:11:05,VALID,998.336,VALID,0,VALID,91.5402,VALID,0,VALID,22.0642,VALID,140,VALID,0.917969,
2011-08-13, 02:12:05,VALID,998.319,VALID,0,VALID,91.4868,VALID,0,VALID,22.1227,VALID,140,VALID,0.810156,
2011-08-13, 02:13:05,VALID,998.317,VALID,0,VALID,91.4028,VALID,0,VALID,22.16,VALID,140,VALID,0.567578,
2011-08-13, 02:14:05,VALID,998.282,VALID,0,VALID,91.2808,VALID,0,VALID,22.1617,VALID,140,VALID,0.335156,
2011-08-13, 02:15:05,VALID,998.29,VALID,0,VALID,91.1053,VALID,0,VALID,22.1795,VALID,140,VALID,0.6875,
2011-08-13, 02:16:05,VALID,998.305,VALID,0,VALID,90.9832,VALID,0,VALID,22.1795,VALID,140,VALID,0.958984,
2011-08-13, 02:17:05,VALID,998.276,VALID,0,VALID,90.8535,VALID,0,VALID,22.2397,VALID,140,VALID,0.796484,
2011-08-13, 02:18:05,VALID,998.253,VALID,0,VALID,90.678,VALID,0,VALID,22.199,VALID,140,VALID,0.807031,
2011-08-13, 02:19:05,VALID,998.245,VALID,0,VALID,90.5483,VALID,0,VALID,22.2381,VALID,140,VALID,0.611719,
2011-08-13, 02:20:05,VALID,998.253,VALID,0,VALID,90.2584,VALID,0,VALID,22.2592,VALID,131,VALID,0.916797,
2011-08-13, 02:21:05,VALID,998.251,VALID,0,VALID,89.9761,VALID,0,VALID,22.2592,VALID,133,VALID,0.557031,
2011-08-13, 02:22:05,VALID,998.261,VALID,0,VALID,89.7243,VALID,0,VALID,22.2576,VALID,133,VALID,0.178516,
2011-08-13, 02:23:05,VALID,998.27,VALID,0,VALID,89.5794,VALID,0,VALID,22.2381,VALID,133,VALID,0.830078,
2011-08-13, 02:24:05,VALID,998.315,VALID,0,VALID,89.6251,VALID,0,VALID,22.2788,VALID,133,VALID,0.7375,
2011-08-13, 02:25:05,VALID,998.33,VALID,0,VALID,89.6023,VALID,0,VALID,22.2788,VALID,133,VALID,0.764453,
2011-08-13, 02:26:05,VALID,998.315,VALID,0,VALID,89.526,VALID,0,VALID,22.2788,VALID,133,VALID,0.625,
2011-08-13, 02:27:05,VALID,998.328,VALID,0,VALID,89.442,VALID,0,VALID,22.2381,VALID,133,VALID,0.547656,
2011-08-13, 02:28:05,VALID,998.322,VALID,0,VALID,89.381,VALID,0,VALID,22.2397,VALID,133,VALID,0.292578,
2011-08-13, 02:29:05,VALID,998.358,VALID,0,VALID,89.3505,VALID,0,VALID,22.2007,VALID,133,VALID,0.146875,
2011-08-13, 02:30:05,VALID,998.34,VALID,0,VALID,89.3734,VALID,0,VALID,22.1812,VALID,133,VALID,0,
2011-08-13, 02:31:05,VALID,998.304,VALID,0,VALID,89.4115,VALID,0,VALID,22.1405,VALID,133,VALID,0,
2011-08-13, 02:32:05,VALID,998.313,VALID,0,VALID,89.4573,VALID,0,VALID,22.1422,VALID,133,VALID,0.00429688,
2011-08-13, 02:33:05,VALID,998.279,VALID,0,VALID,89.6099,VALID,0,VALID,22.1227,VALID,133,VALID,0.428906,
2011-08-13, 02:34:05,VALID,998.293,VALID,0,VALID,89.7549,VALID,0,VALID,22.1032,VALID,133,VALID,0.467969,
2011-08-13, 02:35:05,VALID,998.315,VALID,0,VALID,89.8693,VALID,0,VALID,22.1032,VALID,133,VALID,0.446484,
2011-08-13, 02:36:05,VALID,998.293,VALID,0,VALID,89.9837,VALID,0,VALID,22.1032,VALID,133,VALID,0.364844,
2011-08-13, 02:37:05,VALID,998.264,VALID,0,VALID,90.1287,VALID,0,VALID,22.0837,VALID,133,VALID,0.542578,
2011-08-13, 02:38:05,VALID,998.265,VALID,0,VALID,90.2279,VALID,0,VALID,22.0837,VALID,133,VALID,0.241016,
2011-08-13, 02:39:05,VALID,998.249,VALID,0,VALID,90.2966,VALID,0,VALID,22.0642,VALID,133,VALID,0.135156,
2011-08-13, 02:40:05,VALID,998.265,VALID,0,VALID,90.3347,VALID,0,VALID,22.0642,VALID,133,VALID,0.169141,
2011-08-13, 02:41:05,VALID,998.245,VALID,0,VALID,90.3728,VALID,0,VALID,22.0447,VALID,133,VALID,0,
2011-08-13, 02:42:05,VALID,998.272,VALID,0,VALID,90.3957,VALID,0,VALID,22.0447,VALID,133,VALID,0,
2011-08-13, 02:43:05,VALID,998.216,VALID,0,VALID,90.3728,VALID,0,VALID,22.0252,VALID,133,VALID,0,
2011-08-13, 02:44:05,VALID,998.202,VALID,0,VALID,90.35,VALID,0,VALID,22.0057,VALID,133,VALID,0,
2011-08-13, 02:45:05,VALID,998.198,VALID,0,VALID,90.3347,VALID,0,VALID,21.9667,VALID,133,VALID,0,
2011-08-13, 02:46:05,VALID,998.181,VALID,0,VALID,90.3805,VALID,0,VALID,21.9667,VALID,133,VALID,0,
2011-08-13, 02:47:05,VALID,998.205,VALID,0,VALID,90.4568,VALID,0,VALID,21.9862,VALID,133,VALID,0.03125,
2011-08-13, 02:48:05,VALID,998.172,VALID,0,VALID,90.5178,VALID,0,VALID,21.9862,VALID,133,VALID,0.267578,
2011-08-13, 02:49:05,VALID,998.18,VALID,0,VALID,90.556,VALID,0,VALID,22.0269,VALID,133,VALID,0.277344,
2011-08-13, 02:50:05,VALID,998.16,VALID,0,VALID,90.6017,VALID,0,VALID,22.0447,VALID,133,VALID,0.0597656,
2011-08-13, 02:51:05,VALID,998.173,VALID,0,VALID,90.5407,VALID,0,VALID,22.0447,VALID,133,VALID,0,
2011-08-13, 02:52:05,VALID,998.16,VALID,0,VALID,90.4949,VALID,0,VALID,22.0252,VALID,133,VALID,0,
2011-08-13, 02:53:05,VALID,998.161,VALID,0,VALID,90.4339,VALID,0,VALID,21.9862,VALID,133,VALID,0.546484,
2011-08-13, 02:54:05,VALID,998.18,VALID,0,VALID,90.35,VALID,0,VALID,21.9862,VALID,153,VALID,0.241406,
2011-08-13, 02:55:05,VALID,998.152,VALID,0,VALID,90.2737,VALID,0,VALID,21.965,VALID,153,VALID,0.254297,
2011-08-13, 02:56:05,VALID,998.133,VALID,0,VALID,90.1058,VALID,0,VALID,21.9472,VALID,153,VALID,0.0792969,
2011-08-13, 02:57:05,VALID,998.08,VALID,0,VALID,90.06,VALID,0,VALID,21.965,VALID,81,VALID,0.570703,
2011-08-13, 02:58:05,VALID,998.118,VALID,0,VALID,89.793,VALID,0,VALID,21.9277,VALID,81,VALID,0.375781,
2011-08-13, 02:59:05,VALID,998.134,VALID,0,VALID,89.5183,VALID,0,VALID,21.8301,VALID,81,VALID,0.299219,
2011-08-13, 03:00:05,VALID,998.14,VALID,0,VALID,89.6175,VALID,0,VALID,21.7505,VALID,81,VALID,0.597266,
2011-08-13, 03:01:05,VALID,998.12,VALID,0,VALID,90.0829,VALID,0,VALID,21.7505,VALID,81,VALID,0.716016,
2011-08-13, 03:02:05,VALID,998.133,VALID,0,VALID,90.2203,VALID,0,VALID,21.7505,VALID,81,VALID,0.586328,
2011-08-13, 03:03:05,VALID,998.156,VALID,0,VALID,90.1897,VALID,0,VALID,21.7911,VALID,81,VALID,0.685938,
2011-08-13, 03:04:05,VALID,998.183,VALID,0,VALID,89.9685,VALID,0,VALID,21.7911,VALID,81,VALID,0.530469,
2011-08-13, 03:05:05,VALID,998.163,VALID,0,VALID,89.7243,VALID,0,VALID,21.77,VALID,81,VALID,0.248828,
2011-08-13, 03:06:05,VALID,998.18,VALID,0,VALID,89.587,VALID,0,VALID,21.7911,VALID,81,VALID,0.310547,
2011-08-13, 03:07:05,VALID,998.18,VALID,0,VALID,89.5794,VALID,0,VALID,21.7911,VALID,81,VALID,0.224609,
2011-08-13, 03:08:05,VALID,998.213,VALID,0,VALID,89.6938,VALID,0,VALID,21.7911,VALID,81,VALID,0.249219,
2011-08-13, 03:09:05,VALID,998.221,VALID,0,VALID,89.8235,VALID,0,VALID,21.7895,VALID,81,VALID,0.278125,
2011-08-13, 03:10:05,VALID,998.239,VALID,0,VALID,89.9837,VALID,0,VALID,21.8106,VALID,81,VALID,0.469922,
2011-08-13, 03:11:05,VALID,998.233,VALID,0,VALID,90.1516,VALID,0,VALID,21.7911,VALID,81,VALID,0.379687,
2011-08-13, 03:12:05,VALID,998.256,VALID,0,VALID,90.2966,VALID,0,VALID,21.7911,VALID,81,VALID,0.277734,
2011-08-13, 03:13:05,VALID,998.24,VALID,0,VALID,90.4263,VALID,0,VALID,21.7911,VALID,81,VALID,0.373437,
2011-08-13, 03:14:04,VALID,998.263,VALID,0,VALID,90.5712,VALID,0,VALID,21.7911,VALID,81,VALID,0.517187,
2011-08-13, 03:15:04,VALID,998.272,VALID,0,VALID,90.6399,VALID,0,VALID,21.77,VALID,81,VALID,0.396875,
2011-08-13, 03:16:04,VALID,998.22,VALID,0,VALID,90.678,VALID,0,VALID,21.7911,VALID,81,VALID,0.10625,
2011-08-13, 03:17:04,VALID,998.25,VALID,0,VALID,90.6475,VALID,0,VALID,21.77,VALID,81,VALID,0,
2011-08-13, 03:18:04,VALID,998.214,VALID,0,VALID,90.5865,VALID,0,VALID,21.7911,VALID,81,VALID,0,
2011-08-13, 03:19:04,VALID,998.233,VALID,0,VALID,90.556,VALID,0,VALID,21.731,VALID,81,VALID,0.0761719,
2011-08-13, 03:20:04,VALID,998.236,VALID,0,VALID,90.5636,VALID,0,VALID,21.7521,VALID,81,VALID,0.341797,
2011-08-13, 03:21:04,VALID,998.216,VALID,0,VALID,90.5636,VALID,0,VALID,21.7716,VALID,81,VALID,0.264844,
2011-08-13, 03:22:04,VALID,998.254,VALID,0,VALID,90.4568,VALID,0,VALID,21.7326,VALID,81,VALID,0.0402344,
2011-08-13, 03:23:04,VALID,998.236,VALID,0,VALID,90.1363,VALID,0,VALID,21.6741,VALID,81,VALID,0.15625,
2011-08-13, 03:24:04,VALID,998.255,VALID,0,VALID,89.8998,VALID,0,VALID,21.5766,VALID,81,VALID,0.429297,
2011-08-13, 03:25:04,VALID,998.226,VALID,0,VALID,90.2889,VALID,0,VALID,21.5961,VALID,81,VALID,1.17422,
2011-08-13, 03:26:04,VALID,998.224,VALID,0,VALID,90.7085,VALID,0,VALID,21.6351,VALID,81,VALID,1.08867,
2011-08-13, 03:27:04,VALID,998.257,VALID,0,VALID,90.884,VALID,0,VALID,21.6546,VALID,81,VALID,1.06211,
2011-08-13, 03:28:04,VALID,998.212,VALID,0,VALID,90.968,VALID,0,VALID,21.6335,VALID,74,VALID,1.2125,
2011-08-13, 03:29:04,VALID,998.242,VALID,0,VALID,91.0443,VALID,0,VALID,21.6351,VALID,65,VALID,1.26133,
2011-08-13, 03:30:04,VALID,998.258,VALID,0,VALID,91.0671,VALID,0,VALID,21.5961,VALID,59,VALID,1.02656,
2011-08-13, 03:31:04,VALID,998.269,VALID,0,VALID,91.0748,VALID,0,VALID,21.5376,VALID,59,VALID,0.86875,
2011-08-13, 03:32:04,VALID,998.278,VALID,0,VALID,91.174,VALID,0,VALID,21.4986,VALID,59,VALID,1.09219,
2011-08-13, 03:33:04,VALID,998.296,VALID,0,VALID,91.296,VALID,0,VALID,21.4791,VALID,59,VALID,1.00937,
2011-08-13, 03:34:04,VALID,998.263,VALID,0,VALID,91.441,VALID,0,VALID,21.4596,VALID,49,VALID,1.19961,
2011-08-13, 03:35:04,VALID,998.276,VALID,0,VALID,91.5326,VALID,0,VALID,21.4206,VALID,46,VALID,1.01055,
2011-08-13, 03:36:04,VALID,998.338,VALID,0,VALID,91.5249,VALID,0,VALID,21.3816,VALID,46,VALID,0.177734,
2011-08-13, 03:37:04,VALID,998.295,VALID,0,VALID,91.5478,VALID,0,VALID,21.3231,VALID,46,VALID,0,
2011-08-13, 03:38:04,VALID,998.287,VALID,0,VALID,91.5402,VALID,0,VALID,21.2841,VALID,46,VALID,0,
2011-08-13, 03:39:04,VALID,998.289,VALID,0,VALID,91.6012,VALID,0,VALID,21.2451,VALID,46,VALID,0.366406,
2011-08-13, 03:40:04,VALID,998.265,VALID,0,VALID,91.6699,VALID,0,VALID,21.2256,VALID,46,VALID,0.0847656,
2011-08-13, 03:41:04,VALID,998.277,VALID,0,VALID,91.6928,VALID,0,VALID,21.185,VALID,46,VALID,0,
2011-08-13, 03:42:04,VALID,998.279,VALID,0,VALID,91.7538,VALID,0,VALID,21.1655,VALID,46,VALID,0.0515625,
2011-08-13, 03:43:04,VALID,998.25,VALID,0,VALID,91.853,VALID,0,VALID,21.2061,VALID,46,VALID,0,
2011-08-13, 03:44:04,VALID,998.251,VALID,0,VALID,91.998,VALID,0,VALID,21.2451,VALID,46,VALID,0,
2011-08-13, 03:45:04,VALID,998.266,VALID,0,VALID,92.059,VALID,0,VALID,21.2451,VALID,46,VALID,0,
2011-08-13, 03:46:04,VALID,998.222,VALID,0,VALID,92.1048,VALID,0,VALID,21.224,VALID,46,VALID,0,
2011-08-13, 03:47:04,VALID,998.248,VALID,0,VALID,92.1353,VALID,0,VALID,21.224,VALID,46,VALID,0,